Location: Stara Lesna
(49.1528°N, 20.2911°E)
Time: 12:26:02
(UTC+02:00)

BREEZE-M DEB (TANK) - Pass Details

Date: 21 September 2019
Orbit: 318 x 16615 km, 49.4° (Epoch: 13 October)

Event Time Altitude Azimuth Distance (km) Brightness Sun altitude
Exits shadow 03:40:26 37° 154° (SSE) 1,179 3.8 -25.7°
Drops below altitude 10° 03:46:23 10° 126° (SE) 3,892 6.8 -24.9°
Sets 03:52:35 0° 123° (ESE) 6,622 8.1 -24.1°
